SCP
0 0 0 0 0 0 0 0 0 0 0 1 1 1 1 1 1 0 0 0 0 0 0 0 0 0 0 0 0 0 0 0 0 0 0 0 0 0 0 0 0 0 0
0 0 0 0 0 0 0 0 0 0 0 0 1 1 1 1 0 0 0 0 0 0 0 0 0 0 0 0 0 0 0 0 0 0 0 0 0 0 0 0 0 0 0
0 0 0 0 0 0 0 0 0 0 0 0 0 0 0 0 0 0 0 0 0 0 0 0 0 0 0 0 0 0 0 0 0 0 0 0 0 0 0 0 0 0 0
0 0 0 0 0 0 0 0 0 0 0 0 0 0 0 0 0 0 0 0 0 0 0 0 0 0 0 0 0 0 0 0 0 0 0 0 0 0 0 0 0 0 0
0 0 0 0 0 0 0 0 0 0 0 0 0 0 0 0 0 0 0 0 0 0 0 0 0 0 0 0 0 0 0 0 0 0 0 0 0 0 0 0 0 0 0
0 0 0 0 0 0 0 0 0 0 0 0 0 0 0 0 0 0 0 0 0 0 0 0 0 0 0 0 0 0 0 0 0 0 0 0 0 0 0 0 0 0 0
0 0 0 0 0 0 0 0 0 0 0 0 0 0 0 0 0 0 0 0 0 0 0 0 0 0 0 0 0 0 0 0 0 0 0 0 0 0 0 0 0 0 0
0 0 0 0 0 0 0 0 0 0 0 0 0 0 0 0 0 0 0 0 0 0 0 0 0 0 0 0 0 0 0 0 0 0 0 0 0 0 0 0 0 0 0
0 0 0 0 0 0 0 0 0 0 0 0 0 0 0 0 0 0 0 0 0 0 0 0 0 0 0 0 0 0 0 0 0 0 0 0 0 0 0 0 0 0 0
0 0 0 0 0 0 0 0 0 0 0 0 0 0 0 0 0 0 0 0 0 0 0 0 0 0 0 0 0 0 0 0 0 0 0 0 0 0 0 0 0 0 0
0 0 0 0 0 0 0 0 0 0 0 0 0 0 0 0 0 0 0 0 0 0 0 0 0 0 0 0 0 0 0 0 0 0 0 0 0 0 0 0 0 0 0
0 0 0 0 0 0 0 0 0 0 0 0 0 0 0 0 0 0 0 0 0 0 0 0 0 0 0 0 0 0 0 0 0 0 0 0 0 0 0 0 0 0 0
0 0 0 0 0 0 0 0 0 0 0 0 0 0 0 0 0 0 0 0 0 0 0 0 0 0 0 0 0 0 0 0 0 0 0 0 0 0 0 0 0 0 0
0 0 0 0 0 0 0 0 0 0 0 0 0 0 0 0 0 0 0 0 0 0 0 0 0 0 0 0 0 0 0 0 0 0 0 0 0 0 0 0 0 0 0
0 0 0 0 0 0 0 0 0 0 0 0 0 0 0 0 0 0 0 0 0 0 0 0 0 0 0 0 0 0 0 0 0 0 0 0 0 0 0 0 0 0 0
0 0 0 0 0 0 0 0 0 0 0 0 0 0 0 0 0 0 0 0 0 0 0 0 0 0 0 0 0 0 0 0 0 0 0 0 0 0 0 0 0 0 0
0 0 0 0 0 0 0 0 0 0 0 0 0 0 0 0 0 0 0 0 0 0 0 0 0 0 0 0 0 0 0 0 0 0 0 0 0 0 0 0 0 0 0
0 0 0 0 0 0 0 0 0 0 0 0 0 0 0 0 0 0 0 0 0 0 0 0 0 0 0 0 0 0 0 0 0 0 0 0 0 0 0 0 0 0 0
0 0 0 0 0 0 0 0 0 0 0 0 0 0 0 0 0 0 0 0 0 0 0 0 0 0 0 0 0 0 0 0 0 0 0 0 0 0 0 0 0 0 0
0 0 0 0 0 0 0 0 0 0 0 0 0 0 0 0 0 0 0 0 0 0 0 0 0 0 0 0 0 0 0 0 0 0 0 0 0 0 0 0 0 0 0
0 0 0 0 0 0 0 0 0 0 0 0 0 0 0 0 0 0 0 0 0 0 0 0 0 0 0 0 0 0 0 0 0 0 0 0 0 0 0 0 0 0 0
0 0 0 0 0 0 0 0 0 0 0 0 0 0 0 0 0 0 0 0 0 0 0 0 0 0 0 0 0 0 0 0 0 0 0 0 0 0 0 0 0 0 0
0 0 0 0 0 0 0 0 0 0 0 0 0 0 0 0 0 0 0 0 0 0 0 0 0 0 0 0 0 0 0 0 0 0 0 0 0 0 0 0 0 0 0
0 0 0 0 0 0 0 0 0 0 0 0 0 0 0 0 0 0 0 0 0 0 0 0 0 0 0 0 0 0 0 0 0 0 0 0 0 0 0 0 0 0 0
0 0 0 0 0 0 0 0 0 0 0 0 0 0 0 0 0 0 0 0 0 0 0 0 0 0 0 0 0 0 0 0 0 0 0 0 0 0 0 0 0 0 0
0 0 0 0 0 0 0 0 0 0 0 0 0 0 0 0 0 0 0 0 0 0 0 0 0 0 0 0 0 0 0 0 0 0 0 0 0 0 0 0 0 0 0
Wind_Speed
7 6 6 6 5 6 8 10 10 10 9 7 7 7 7 6 6 6 8 9 9 10 9 6 7 7 6 7 7 6 6 4 3 3 3 3 2 1 0 0 1 1 2
7 7 6 6 6 7 8 9 9 10 10 8 7 6 5 5 5 5 7 9 9 9 8 9 7 7 6 7 7 7 5 4 3 3 3 3 4 3 1 1 1 1 1
8 7 6 6 6 7 8 8 9 9 9 8 5 4 3 3 4 6 6 8 9 9 9 9 8 8 7 7 7 7 8 5 4 4 3 3 3 1 3 2 1 0 1
6 6 6 6 6 6 6 8 9 9 9 9 8 8 7 6 6 5 5 5 7 8 8 8 8 8 7 7 7 6 5 5 4 4 4 4 2 3 2 3 2 0 1
5 5 5 4 4 4 5 7 8 8 8 8 9 9 7 5 4 4 6 6 5 6 7 7 6 6 5 6 6 6 6 4 4 4 3 4 3 5 4 4 3 2 1
4 3 3 3 3 3 4 5 6 7 7 8 9 9 9 8 7 7 7 5 4 4 6 6 5 5 5 6 6 6 6 5 5 4 4 3 3 4 4 5 4 4 2
2 3 3 2 2 3 3 3 5 6 6 7 7 8 9 9 9 8 8 7 5 5 6 6 6 6 6 6 5 5 6 6 6 5 4 3 3 2 3 4 4 4 2
4 5 4 3 3 2 2 2 4 4 5 6 5 5 7 6 6 8 7 7 6 6 7 7 7 7 7 7 6 5 5 4 5 5 5 3 3 3 3 3 3 4 4
6 6 6 5 5 4 3 2 2 3 3 3 4 4 5 5 6 6 6 5 5 6 8 8 8 8 8 8 8 6 6 6 5 5 5 4 3 2 2 3 3 4 4
8 7 7 7 6 5 4 4 3 3 3 3 3 2 3 3 4 5 6 6 6 7 8 8 9 8 8 8 7 6 6 6 5 4 5 4 3 3 2 2 3 3 4
9 8 8 7 7 6 6 5 4 4 3 2 1 2 2 2 3 4 5 6 6 8 9 9 9 9 9 8 7 7 7 7 6 5 5 5 4 3 3 2 2 3 3
9 8 8 8 8 8 7 6 6 5 4 3 2 1 1 1 2 3 4 5 6 7 8 9 9 9 9 8 8 8 7 7 7 7 6 6 4 5 3 3 3 3 3
9 9 9 9 9 8 8 7 7 6 5 3 2 2 1 1 2 2 3 5 6 6 7 8 8 8 8 8 7 8 7 7 7 6 6 6 6 6 4 4 3 2 2
10 10 9 9 9 8 8 7 7 6 5 4 2 1 0 0 1 2 3 4 5 6 7 7 7 7 7 7 7 7 7 7 6 5 5 6 6 5 5 4 3 3 3
10 10 9 9 9 9 8 8 7 7 6 4 3 2 2 1 1 2 3 4 4 5 6 6 7 7 6 7 8 7 7 7 7 6 5 5 4 4 4 3 3 4 3
8 9 9 9 9 9 9 8 8 7 6 5 4 3 2 1 1 2 3 4 5 5 6 6 7 7 5 8 10 8 7 7 7 6 6 5 5 6 6 5 3 2 3
7 8 8 8 8 9 8 8 8 7 6 5 4 4 3 2 2 2 4 5 6 6 7 7 7 7 7 11 11 10 6 7 6 6 6 5 5 7 5 6 6 3 1
7 7 7 8 8 8 8 7 7 6 6 5 5 4 4 4 3 3 4 5 5 6 6 7 7 7 8 12 12 11 7 6 6 6 7 7 7 7 7 6 5 4 3
6 6 7 7 7 7 8 7 6 6 6 6 6 5 5 5 4 5 5 5 5 6 6 6 7 7 8 12 13 12 6 6 6 6 7 7 7 9 10 7 6 5 4
6 6 7 7 7 8 8 7 7 7 7 7 7 7 6 6 6 6 5 5 5 6 6 6 6 7 8 12 14 13 6 6 6 6 6 8 8 11 12 8 7 6 5
6 6 7 6 7 7 7 7 7 8 8 8 8 7 6 6 6 5 5 5 5 5 6 7 7 7 9 11 15 15 7 7 7 6 6 6 12 12 13 10 6 6 5
6 7 7 7 7 7 7 7 8 8 8 8 8 8 7 6 5 5 5 5 6 6 7 7 7 6 8 10 13 17 14 10 8 7 6 7 13 13 13 10 8 9 7
7 7 7 8 7 7 7 8 8 8 8 9 9 8 7 6 5 5 5 5 6 6 6 6 7 6 6 8 14 17 17 16 8 6 8 10 13 13 11 12 12 10 6
7 7 8 9 9 8 8 8 9 8 9 9 9 7 7 6 6 5 5 5 6 6 6 7 7 6 6 7 8 9 10 14 11 7 9 12 12 10 8 9 9 7 6
7 7 8 9 10 10 9 9 8 8 9 9 8 7 7 6 6 6 6 7 7 7 7 7 7 7 8 10 14 10 9 9 9 8 6 6 7 8 7 7 7 7 7
8 8 9 10 10 10 10 9 8 8 9 9 8 6 6 6 6 6 6 8 9 11 12 10 8 7 9 11 16 18 16 15 15 10 7 8 8 9 9 8 8 8 8
Wind_Direction
196 189 193 198 189 203 210 207 203 199 192 185 183 186 191 188 189 192 198 199 196 194 196 193 195 195 200 201 201 201 202 206 215 237 243 231 221 217 177 316 338 36 26
185 181 181 186 192 207 214 208 208 207 199 196 190 191 186 188 191 193 199 201 201 198 199 199 195 193 198 200 198 198 203 193 202 231 245 235 197 173 165 91 47 36 62
186 179 174 183 191 202 212 209 211 212 206 201 188 173 167 177 188 193 198 203 204 202 200 202 197 193 194 196 198 201 206 200 195 221 239 249 246 195 177 156 160 75 45
192 184 179 184 194 206 209 214 208 208 204 198 198 195 196 204 201 196 192 194 205 204 201 198 199 195 194 194 193 203 210 206 194 197 231 258 282 257 231 186 180 145 336
192 177 172 178 186 188 196 205 203 205 203 200 202 205 209 208 194 187 188 190 194 197 192 190 190 192 189 188 187 191 195 203 207 198 195 212 228 244 255 251 222 215 217
180 159 140 147 161 164 181 191 192 196 197 196 201 205 207 197 190 190 191 191 189 188 185 180 178 180 181 179 183 184 187 194 200 200 201 207 213 215 229 251 260 262 234
140 111 94 107 124 140 153 171 174 184 185 189 200 204 207 203 202 195 195 191 187 188 187 177 172 173 175 169 169 178 185 192 196 198 198 211 226 234 237 249 261 264 253
87 78 68 62 68 81 98 140 168 170 173 181 189 194 201 204 203 199 193 193 191 188 182 176 173 172 167 162 168 171 178 187 192 195 191 196 198 206 221 233 244 254 245
71 67 55 47 40 42 48 81 135 142 143 155 166 179 190 195 196 191 191 192 188 177 177 176 171 170 166 168 169 174 176 178 184 189 190 190 183 193 209 221 233 244 254
60 59 54 49 42 42 44 54 74 102 111 129 143 167 181 188 188 184 189 188 182 176 174 174 170 171 170 172 172 169 173 177 178 178 182 181 177 178 189 203 220 240 254
53 50 50 49 44 43 46 48 51 60 66 73 108 145 151 167 175 181 182 181 179 178 177 172 170 171 171 172 171 170 168 175 173 175 182 180 176 176 179 188 207 223 238
54 54 53 51 45 42 39 39 43 46 43 38 42 64 92 148 172 179 178 177 175 175 173 169 169 171 172 172 173 168 174 178 177 177 178 177 174 179 178 189 206 217 226
53 50 46 41 35 33 32 31 32 30 27 25 31 47 70 157 177 182 178 176 174 171 168 169 169 170 171 173 174 171 174 176 177 179 182 181 182 187 185 191 200 210 221
47 41 38 34 29 26 25 23 22 18 13 10 11 17 345 254 202 189 182 180 177 172 170 170 169 170 170 171 170 169 171 170 170 174 180 181 189 192 186 190 197 205 217
39 33 28 25 22 20 18 16 12 8 1 354 349 345 333 286 203 193 187 180 179 176 170 166 167 170 171 174 171 169 172 170 170 171 174 175 175 174 178 184 193 203 217
29 22 17 15 14 11 6 3 3 359 350 343 335 332 317 289 226 204 191 185 182 177 173 176 175 177 177 171 173 170 173 175 175 171 168 162 164 166 171 172 179 208 224
15 10 5 3 0 358 354 352 350 348 345 340 332 323 307 283 254 220 204 197 191 184 184 184 183 185 178 175 178 180 176 177 177 173 170 171 171 173 174 165 163 169 194
1 359 354 351 349 346 345 341 341 341 338 334 329 319 303 284 265 236 220 211 202 196 193 191 189 187 182 182 182 179 178 175 176 181 183 182 180 184 182 179 178 180 175
348 345 343 339 337 341 340 333 333 335 334 332 326 316 298 280 262 244 231 218 208 205 203 196 193 192 188 187 185 179 174 177 180 185 192 193 191 185 185 184 183 186 173
341 336 334 333 335 338 335 329 329 329 329 326 318 308 293 277 264 253 242 229 215 209 203 202 200 198 194 190 190 185 182 183 183 186 193 201 199 188 189 193 193 196 186
331 328 325 326 328 329 325 320 320 321 320 316 310 303 292 279 269 260 244 230 217 206 206 203 203 203 202 196 196 194 191 190 187 188 191 194 198 198 197 199 204 199 185
322 323 318 317 319 322 316 310 311 314 313 310 306 302 297 287 271 258 244 229 216 210 210 208 206 206 204 204 202 202 202 195 193 195 193 191 194 200 201 200 198 190 186
315 315 313 311 312 315 312 305 308 311 309 305 303 301 298 287 272 259 247 233 221 216 212 209 210 207 203 206 208 208 206 203 199 197 192 189 193 198 203 206 197 192 195
311 312 311 308 309 312 308 303 305 305 303 300 300 297 294 288 277 262 248 237 227 223 217 213 214 210 204 203 200 203 205 204 202 194 192 193 196 199 201 199 199 202 202
307 307 304 302 304 307 304 303 302 301 297 295 293 291 286 282 276 264 251 245 241 237 231 224 216 210 211 209 200 194 197 194 189 175 176 183 187 195 197 200 201 199 199
301 299 297 297 301 302 300 300 299 297 294 291 290 287 284 281 276 274 270 251 248 251 248 245 234 227 225 210 205 206 203 198 186 176 185 192 196 200 199 199 200 202 204